Location: Poughquag
(41.6090°N, 73.6820°W)
Time: 01:23:00
(UTC-05:00)

A-11 Canister half - All Passes

Search period start: 29 November 2023 00:00
Search period end: 09 December 2023 00:00
Orbit: 1524 x 1684 km, 47.3° (Epoch: 28 November)

Date Brightness Start Highest point End Pass type
(mag) Time Alt. Az. Time Alt. Az. Time Alt. Az.
29 Nov - 01:45:47 10° WNW 01:55:45 89° NNE 02:05:21 10° ESE visible
29 Nov - 03:51:28 10° WNW 04:00:07 38° SW 04:08:30 10° SSE visible
29 Nov - 17:13:41 10° ESE 17:14:15 10° ESE 17:14:49 10° ESE visible
29 Nov - 19:08:01 10° SSW 19:17:25 45° SE 19:26:43 10° ENE visible
29 Nov - 21:11:55 10° WSW 21:22:08 83° NNW 21:32:09 10° ENE visible
29 Nov - 23:18:06 10° W 23:28:07 63° N 23:37:49 10° E night (unlit)
30 Nov - 01:23:58 10° WNW 01:33:59 87° NNE 01:43:38 10° ESE visible
30 Nov - 03:29:38 10° WNW 03:38:26 40° SW 03:46:58 10° SSE visible
30 Nov - 18:46:25 10° SSW 18:55:42 43° SE 19:04:55 10° ENE visible
30 Nov - 20:50:08 10° WSW 21:00:21 85° NNW 21:10:23 10° ENE visible
30 Nov - 22:56:17 10° W 23:06:18 63° N 23:16:03 10° E visible
01 Dec - 01:02:11 10° WNW 01:12:13 85° NNE 01:21:53 10° ESE visible
01 Dec - 03:07:48 10° WNW 03:16:45 42° SW 03:25:25 10° SSE visible
01 Dec - 18:24:49 10° SSW 18:33:59 41° SE 18:43:06 10° ENE visible
01 Dec - 20:28:21 10° WSW 20:38:34 87° NNW 20:48:37 10° ENE visible
01 Dec - 22:34:26 10° W 22:44:30 63° N 22:54:15 10° E visible
02 Dec - 00:40:24 10° WNW 00:50:27 83° NNE 01:00:09 10° ESE night (unlit)
02 Dec - 02:45:59 10° WNW 02:55:04 44° SW 03:03:51 10° SSE visible
02 Dec - 18:03:13 10° SSW 18:12:17 39° SE 18:21:17 10° ENE visible
02 Dec - 20:06:34 10° WSW 20:16:48 89° NNW 20:26:52 10° ENE visible
02 Dec - 22:12:36 10° W 22:22:40 64° N 22:32:28 10° ENE visible
03 Dec - 00:18:36 10° WNW 00:28:40 81° NNE 00:38:24 10° ESE night (unlit)
03 Dec - 02:24:09 10° WNW 02:33:22 46° SW 02:42:16 10° SSE visible
03 Dec - 04:35:02 10° WSW 04:36:24 10° WSW 04:37:46 10° SW visible
03 Dec - 17:41:40 10° SSW 17:50:34 37° SE 17:59:27 10° ENE visible
03 Dec - 19:44:47 10° WSW 19:55:01 88° SSE 20:05:06 10° ENE visible
03 Dec - 21:50:47 10° W 22:00:51 64° N 22:10:41 10° ENE visible
03 Dec - 23:56:47 10° WNW 00:06:54 79° NNE 00:16:39 10° ESE night (unlit)
04 Dec - 02:02:20 10° WNW 02:11:40 49° SW 02:20:41 10° SSE visible
04 Dec - 04:11:57 10° WSW 04:14:47 12° WSW 04:17:36 10° SW visible
04 Dec - 17:20:07 10° SSW 17:28:52 35° SE 17:37:37 10° ENE visible
04 Dec - 19:23:01 10° WSW 19:33:14 86° SSE 19:43:20 10° ENE visible
04 Dec - 21:28:56 10° W 21:39:02 64° N 21:48:54 10° ENE visible
04 Dec - 23:35:00 10° WNW 23:45:07 77° NNE 23:54:53 10° ESE night (unlit)
05 Dec - 01:40:32 10° WNW 01:49:58 51° SW 01:59:05 10° SSE visible
05 Dec - 03:49:24 10° W 03:53:08 13° WSW 03:56:52 10° SW visible
05 Dec - 16:58:35 10° S 17:07:10 33° SE 17:15:46 10° ENE visible
05 Dec - 19:01:16 10° WSW 19:11:28 84° SSE 19:21:35 10° ENE visible
05 Dec - 21:07:06 10° W 21:17:13 65° N 21:27:07 10° ENE visible
05 Dec - 23:13:12 10° WNW 23:23:20 76° NNE 23:33:08 10° ESE visible
06 Dec - 01:18:43 10° WNW 01:28:16 54° SW 01:37:28 10° SSE night (unlit)
06 Dec - 03:27:04 10° W 03:31:31 14° WSW 03:35:55 10° SSW visible
06 Dec - 16:37:03 10° S 16:45:29 31° SE 16:53:54 10° ENE visible
06 Dec - 18:39:30 10° SW 18:49:42 81° SSE 18:59:49 10° ENE visible
06 Dec - 20:45:16 10° W 20:55:24 65° N 21:05:20 10° ENE visible
06 Dec - 22:51:24 10° WNW 23:01:32 74° NNE 23:11:21 10° ESE visible
07 Dec - 00:56:55 10° WNW 01:06:33 56° SW 01:15:51 10° SE night (unlit)
07 Dec - 03:04:51 10° W 03:09:52 15° WSW 03:14:51 10° SSW night (unlit)
07 Dec - 16:15:35 10° S 16:23:47 29° SE 16:32:02 10° ENE daylight
07 Dec - 18:17:46 10° SW 18:27:55 79° SSE 18:38:02 10° ENE visible
07 Dec - 20:23:27 10° W 20:33:35 66° N 20:43:32 10° ENE visible
07 Dec - 22:29:35 10° WNW 22:39:45 73° NNE 22:49:35 10° ESE visible
08 Dec - 00:35:07 10° WNW 00:44:50 59° SW 00:54:13 10° SE night (unlit)
08 Dec - 02:42:42 10° W 02:48:15 17° WSW 02:53:42 10° SSW night (unlit)
08 Dec - 15:54:06 10° S 16:02:06 28° SE 16:10:08 10° ENE daylight
08 Dec - 17:56:02 10° SW 18:06:09 76° SSE 18:16:16 10° ENE visible
08 Dec - 20:01:37 10° W 20:11:46 66° N 20:21:46 10° ENE visible
08 Dec - 22:07:46 10° WNW 22:17:56 72° NNE 22:27:48 10° E visible
